Regional Weather Roundup
Issued by NWS Spokane, WA

Home | Current Version | Previous Version | Text Only | Print | Product List | Glossary On
Versions: 1 2 3 4 5 6 7 8 9 10 11 12 13 14 15 16 17 18 19 20 21 22 23 24 25 26 27 28 29 30 31 32 33 34 35 36 37 38 39 40 41 42 43 44 45 46 47 48 49 50
424
NZUS01 KOTX 270125
RWROTX

Eastern Washington/Northern Idaho Roundup
National Weather Service, Spokane WA
600 PM PDT WED APR 26 2017

Note: "fair" indicated few or no clouds below 12,000 feet with no
significant weather and/or obstructions to visibility.

...Northeast Washington and Northern Idaho Panhandle...

CITY           SKY/WX    TMP DP  RH WIND       PRES   REMARKS
Spokane Intl   PTSUNNY   54  35  48 SW23G31   29.65F
Spokane Downto LGT RAIN  52  42  69 SW15      29.66S
Coeur d Alene  CLOUDY    49  40  71 S9G17     29.68R
Deer Park      CLOUDY    51  36  56 MISG      29.65R
Sandpoint      CLOUDY    46  39  76 E6        29.65S
Bonners Ferry  FAIR      45  37  76 S10G18    29.64S

...Southeast Washington and southern Idaho Panhandle...

CITY           SKY/WX    TMP DP  RH WIND       PRES   REMARKS
Walla Walla    CLOUDY    54  45  71 SW13      29.78S
Pullman/Moscow PTSUNNY   47  36  65 SW17      29.74S
Lewiston       CLOUDY    50  41  71 SW6       29.75S
Lowell           N/A     46  43  89 S5        29.77R
Grangeville    CLOUDY    41  37  87 SE8       29.73S

...Columbia Basin...

CITY           SKY/WX    TMP DP  RH WIND       PRES   REMARKS
Ephrata        SUNNY     61  25  25 W18       29.67R
Moses Lake     MOSUNNY   61  26  26 SW24G33   29.68R
Pasco          SUNNY     61  42  49 SW23G30   29.73F
Richland       PTCLDY    65  35  32 W17G23    29.73R
Hermiston      PTSUNNY   58  42  55 W23G30    29.77S
Pendleton      MOSUNNY   53  40  61 W26G35    29.78F

...East Slopes Cascades...

CITY           SKY/WX    TMP DP  RH WIND       PRES   REMARKS
The Dalles     PTSUNNY   58  40  51 W16G23    29.89R
Yakima         SUNNY     57  31  37 W23G29    29.76R
Ellensburg     SUNNY     52  35  52 NW25G36   29.77R
Stampede Pass  CLOUDY    34  34 100 W12G25    29.78S WCI  25
Wenatchee      SUNNY     57  28  33 W21       29.70R
Omak           MOSUNNY   62  17  17 W15G28    29.61S
Chelan           N/A     55  30  38 SE24        N/A
Sunnyside      CLEAR     58  32  37 W22G28    29.75R

...Southern British Columbia...

CITY           SKY/WX    TMP DP  RH WIND       PRES   REMARKS
Penticton      MOSUNNY   61  28  29 SW16G23   29.60R
Castlegar      CLOUDY    48  43  81 S9        29.65S
Cranbrook      LGT RAIN  45  39  81 S7        29.59R
Osoyoos          N/A     61  37  41 S3          N/A
Creston          N/A     50  41  71 S6          N/A

...Western Montana...

CITY           SKY/WX    TMP DP  RH WIND       PRES   REMARKS
Kalispell      CLOUDY    45  41  86 SE8       29.63F
Libby            N/A     46  37  71 SE7       29.64R
Missoula       CLOUDY    47  38  71 N13       29.66R

...Neighboring Cities...

CITY           SKY/WX    TMP DP  RH WIND       PRES   REMARKS
Seattle        PTSUNNY   55  38  52 W15G24    29.89R
Portland       PTSUNNY   56  39  53 W13       29.97R
Boise          HVY RAIN  48  44  86 N14       29.72R FOG
Great Falls    LGT RAIN  43  37  79 SW9       29.61R
Calgary        CLOUDY    37  32  81 E12       29.64S



USA.gov is the U.S. government's official web portal to all federal, state and local government web resources and services.